Topeka, KS

2:59 PM CST on November 16, 2019 (GMT -0600)
Billard Municipal

Weather History for KTOP - September, 2019

Change the Weather History Date:

Tuesday, September 10, 2019

  Actual Average Record
Temperature  
Mean Temperature 81 °F 71 °F  
Max Temperature 87 °F 83 °F 103 °F (1936)
Min Temperature 75 °F 59 °F 36 °F (1976)
Degree Days  
Heating Degree Days 0 1  
Month to date heating degree days 0 5  
Since 1 July heating degree days 0 7  
Cooling Degree Days 16 7  
Month to date cooling degree days 131 81  
Year to date cooling degree days 1377 1309  
Growing Degree Days 30 (Base 50)    
Moisture  
Dew Point 68 °F    
Average Humidity 67    
Maximum Humidity 76    
Minimum Humidity 58    
Precipitation  
Precipitation 0.07 in 0.13 in 4.38 in (2015)
Month to date precipitation 0.11 1.23  
Year to date precipitation 41.00 27.80  
Snow  
Snow 0.00 in 0.00 in 0.00 in ()
Month to date snowfall 0.0 0.0  
Year to date snowfall 18.5 11.3  
Since 1 July snowfall T 0.0  
Snow Depth 0.00 in    
Sea Level Pressure  
Sea Level Pressure 29.97 in    
Wind  
Wind Speed 10 mph (South)    
Max Wind Speed 21 mph    
Max Gust Speed 28 mph    
Visibility 10 miles    
Events Rain , Thunderstorm    
T = Trace of Precipitation, MM = Missing Value Source: NWS Daily Summary

Daily Weather History Graph

Daily Weather History Graph

Search for Another Location

Airport or City:

Astronomy

Sep. 10, 2019 Rise Set
Actual Time 6:59 AM CDT 7:39 PM CDT
Civil Twilight 6:32 AM CDT 8:06 PM CDT
Nautical Twilight 6:00 AM CDT 8:37 PM CDT
Astronomical Twilight 5:27 AM CDT 9:10 PM CDT
Moon 6:14 PM CDT (9/10) 3:28 AM CDT (9/10)
Length of Visible Light 13h 33m
Length of Day
12h 40m
Waxing Gibbous, 89% of the Moon is Illuminated
Sep 10
Waxing Gibbous
Sep 13
Full
Sep 21
Last Quarter
Sep 28
New
Oct 5
First Quarter

Hourly Weather History & Observations

Time (CDT) Temp. Heat Index Dew Point Humidity Pressure Visibility Wind Dir Wind Speed Gust Speed Precip Events Conditions
12:53 AM - - - N/A% 29.95 in - North - - N/A   Unknown
1:53 AM 78.1 °F - 68.0 °F 71% 29.93 in 10.0 mi South 10.4 mph - N/A   Clear
2:53 AM 78.1 °F - 66.9 °F 68% 29.92 in 10.0 mi South 9.2 mph - N/A   Clear
3:53 AM 78.1 °F - 66.0 °F 66% 29.91 in 10.0 mi South 10.4 mph - N/A   Mostly Cloudy
4:53 AM 78.1 °F - 66.0 °F 66% 29.92 in 10.0 mi South 12.7 mph - N/A   Partly Cloudy
5:53 AM 77.0 °F - 64.9 °F 66% 29.93 in 10.0 mi South 12.7 mph - N/A   Partly Cloudy
6:53 AM 77.0 °F - 64.9 °F 66% 29.94 in 10.0 mi South 9.2 mph 19.6 mph N/A   Scattered Clouds
7:53 AM 77.0 °F - 64.9 °F 66% 29.96 in 10.0 mi South 11.5 mph - N/A   Clear
8:53 AM 79.0 °F - 66.0 °F 64% 29.97 in 10.0 mi South 12.7 mph - N/A   Clear
9:53 AM 82.0 °F 84.5 °F 66.9 °F 60% 29.99 in 10.0 mi SSW 10.4 mph 18.4 mph N/A   Clear
10:53 AM 81.0 °F 83.3 °F 66.9 °F 62% 30.00 in 10.0 mi South 6.9 mph - N/A   Partly Cloudy
11:53 AM 84.0 °F 87.0 °F 68.0 °F 58% 29.99 in 10.0 mi South 8.1 mph - N/A   Mostly Cloudy
12:53 PM 82.9 °F 85.8 °F 68.0 °F 60% 30.02 in 10.0 mi South 13.8 mph - N/A   Mostly Cloudy
1:53 PM 82.0 °F 84.9 °F 68.0 °F 62% 29.99 in 10.0 mi South 11.5 mph - N/A   Clear
2:53 PM 77.0 °F - 66.9 °F 71% 29.99 in 4.0 mi South 15.0 mph 21.9 mph 0.01 in Rain Rain
3:44 PM 77.0 °F - 69.1 °F 76% 30.00 in 3.0 mi South 10.4 mph 28.8 mph 0.03 in Rain , Thunderstorm Thunderstorms and Rain
3:53 PM 77.0 °F - 69.1 °F 76% 29.99 in 9.0 mi South 10.4 mph - 0.06 in Rain , Thunderstorm Light Thunderstorms and Rain
4:04 PM 77.0 °F - 71.1 °F 82% 30.01 in 10.0 mi SSE 5.8 mph - 0.00 in Thunderstorm Overcast
4:37 PM 79.0 °F - 72.0 °F 79% 30.01 in 10.0 mi SSE 4.6 mph - 0.00 in   Overcast
4:53 PM 82.0 °F 87.4 °F 73.0 °F 74% 29.98 in 10.0 mi ESE 5.8 mph - 0.00 in   Overcast
5:53 PM 84.0 °F 90.2 °F 73.0 °F 69% 29.96 in 10.0 mi SSE 9.2 mph - N/A   Partly Cloudy
6:53 PM 82.9 °F 88.0 °F 72.0 °F 69% 29.95 in 10.0 mi SSE 9.2 mph - N/A   Clear
7:53 PM 82.0 °F 86.3 °F 71.1 °F 69% 29.95 in 10.0 mi South 8.1 mph - N/A   Clear
8:53 PM 80.1 °F 83.2 °F 70.0 °F 71% 29.96 in 10.0 mi SSE 11.5 mph - N/A   Clear
9:53 PM 80.1 °F 82.9 °F 69.1 °F 69% 29.97 in 10.0 mi South 11.5 mph 20.7 mph N/A   Clear
10:53 PM 78.1 °F - 69.1 °F 74% 29.97 in 10.0 mi SSE 12.7 mph - N/A   Clear
11:53 PM 77.0 °F - 69.1 °F 76% 29.98 in 10.0 mi SSE 6.9 mph - N/A   Clear